Location: Auckland
(36.8670°S, 174.7670°E)
Time: 19:50:29
(UTC+13:00)

Tiangong 2 - Pass Details

Date: 24 January 2019
Orbit: 380 x 390 km, 42.8° (Epoch: 21 February)

Event Time Altitude Azimuth Distance (km) Brightness Sun altitude
Rises 21:04:47 0° 250° (WSW) 2,287 7.3 -5.6°
Reaches altitude 10° 21:06:55 10° 256° (WSW) 1,425 5.5 -5.9°
Maximum altitude 21:10:00 43° 329° (NNW) 560 1.9 -6.5°
Drops below altitude 10° 21:13:02 10° 42° (NE) 1,407 3.3 -7.0°
Enters shadow 21:13:19 - 43° (NE) 1,517 3.5 -7.0°
